UAL1582 LPPR-EGLL

Flight info

Callsign UAL1582
Flight time N/A
Altitude 38000
Route TURON P600 ASDEB DCT KORUL DCT FEJAC DCT JSY/N0450F340 DCT REVTU UP87 ROXOG
Aircraft B38M/M-SDE1FGHILORVWXY/HB1

Departure

Time 2026-05-07 19:20
Airport Francisco de Sá Carneiro Airport (LPPR)

Arrival

Time N/A
Airport London Heathrow Airport (EGLL)
Time Latitude Longitude Altitude Speed Heading
2026-05-07 18:58 41.23637 -8.67246 239 ft 0 kts 81°
2026-05-07 19:13 41.23633 -8.67277 238 ft 4 kts 82°
2026-05-07 19:13 41.23631 -8.67307 237 ft 4 kts 101°
2026-05-07 19:13 41.23644 -8.67331 236 ft 4 kts 158°
2026-05-07 19:13 41.23662 -8.67338 240 ft 1 kts 167°
2026-05-07 19:14 41.23665 -8.67339 239 ft 0 kts 167°
2026-05-07 19:16 41.23663 -8.67338 240 ft 1 kts 166°
2026-05-07 19:16 41.23623 -8.67329 236 ft 11 kts 178°
2026-05-07 19:17 41.23539 -8.67374 236 ft 15 kts 207°
2026-05-07 19:17 41.23433 -8.67373 237 ft 17 kts 167°
2026-05-07 19:17 41.23334 -8.67422 236 ft 18 kts 255°
2026-05-07 19:17 41.23318 -8.67518 238 ft 4 kts 258°
2026-05-07 19:18 41.23316 -8.67533 239 ft 0 kts 258°
2026-05-07 19:18 41.23312 -8.67558 240 ft 9 kts 258°
2026-05-07 19:19 41.23294 -8.67673 243 ft 11 kts 257°
2026-05-07 19:19 41.23342 -8.67744 242 ft 15 kts 345°
2026-05-07 19:19 41.23689 -8.67836 227 ft 97 kts 349°
2026-05-07 19:19 41.24629 -8.68082 251 ft 171 kts 349°
2026-05-07 19:20 41.25924 -8.68349 945 ft 199 kts 353°
2026-05-07 19:20 41.27315 -8.68590 1968 ft 206 kts 354°
2026-05-07 19:20 41.28803 -8.68801 2719 ft 225 kts 349°
2026-05-07 19:20 41.30397 -8.69293 3399 ft 245 kts 346°
2026-05-07 19:21 41.32110 -8.69869 4141 ft 263 kts 346°
2026-05-07 19:21 41.33914 -8.70475 4766 ft 271 kts 346°
2026-05-07 19:21 41.35751 -8.71100 4925 ft 273 kts 345°
2026-05-07 19:21 41.37603 -8.71719 5175 ft 276 kts 348°
2026-05-07 19:22 41.38854 -8.71979 5829 ft 276 kts 351°
2026-05-07 19:22 41.40792 -8.72385 6696 ft 287 kts 349°
2026-05-07 19:22 41.42802 -8.72554 7628 ft 292 kts
2026-05-07 19:22 41.44814 -8.72006 8541 ft 300 kts 12°
2026-05-07 19:23 41.46886 -8.71527 9499 ft 304 kts 12°
2026-05-07 19:23 41.48991 -8.71031 10328 ft 312 kts 12°
2026-05-07 19:23 41.51195 -8.70494 10802 ft 332 kts 12°
2026-05-07 19:23 41.53532 -8.69913 11294 ft 349 kts 12°
2026-05-07 19:24 41.55963 -8.69302 11899 ft 362 kts 12°
2026-05-07 19:24 41.58457 -8.68673 12726 ft 366 kts 12°
2026-05-07 19:24 41.60979 -8.68034 13584 ft 371 kts 12°
2026-05-07 19:24 41.63527 -8.67387 14352 ft 375 kts 12°
2026-05-07 19:25 41.66103 -8.66733 15138 ft 379 kts 12°
2026-05-07 19:25 41.68707 -8.66071 15889 ft 383 kts 12°
2026-05-07 19:25 41.71339 -8.65401 16655 ft 387 kts 12°
2026-05-07 19:25 41.73995 -8.64724 17385 ft 391 kts 12°
2026-05-07 19:26 41.76677 -8.64041 18118 ft 395 kts 12°
2026-05-07 19:26 41.79390 -8.63348 18745 ft 398 kts 12°
2026-05-07 19:26 41.82121 -8.62650 19383 ft 401 kts 12°
2026-05-07 19:26 41.84877 -8.61946 19997 ft 405 kts 12°
2026-05-07 19:27 41.87658 -8.61234 20609 ft 408 kts 12°
2026-05-07 19:27 41.90458 -8.60517 21207 ft 412 kts 11°
2026-05-07 19:27 41.93281 -8.59793 21811 ft 415 kts 11°
2026-05-07 19:27 41.96127 -8.59063 22406 ft 418 kts 11°
2026-05-07 19:28 41.98996 -8.58326 22993 ft 421 kts 11°
2026-05-07 19:28 42.01887 -8.57583 23541 ft 425 kts 11°
2026-05-07 19:28 42.04801 -8.56833 24013 ft 428 kts 11°
2026-05-07 19:28 42.07747 -8.56192 24459 ft 430 kts
2026-05-07 19:29 42.10728 -8.55769 24951 ft 432 kts
2026-05-07 19:29 42.13730 -8.55317 25396 ft 436 kts
2026-05-07 19:29 42.16753 -8.54841 25834 ft 439 kts
2026-05-07 19:29 42.19793 -8.54350 26277 ft 442 kts
2026-05-07 19:30 42.22857 -8.53852 26701 ft 445 kts
2026-05-07 19:30 42.25933 -8.53352 27125 ft 448 kts
2026-05-07 19:30 42.29034 -8.52847 27514 ft 450 kts
2026-05-07 19:30 42.32156 -8.52339 27968 ft 452 kts
2026-05-07 19:31 42.35292 -8.51828 28364 ft 456 kts
2026-05-07 19:31 42.38452 -8.51313 28759 ft 458 kts
2026-05-07 19:31 42.41626 -8.50795 29185 ft 461 kts
2026-05-07 19:31 42.44822 -8.50272 29565 ft 464 kts
2026-05-07 19:32 42.48031 -8.49747 29950 ft 466 kts
2026-05-07 19:32 42.51240 -8.48960 30306 ft 472 kts 15°
2026-05-07 19:32 42.54262 -8.47162 30699 ft 478 kts 25°
2026-05-07 19:32 42.57247 -8.45115 30839 ft 483 kts 21°
2026-05-07 19:33 42.60322 -8.43308 31263 ft 482 kts 21°
2026-05-07 19:33 42.63385 -8.41412 31525 ft 486 kts 22°
2026-05-07 19:33 42.66460 -8.39460 31868 ft 488 kts 22°
2026-05-07 19:33 42.69521 -8.37484 32314 ft 487 kts 22°
2026-05-07 19:34 42.72579 -8.35489 32738 ft 487 kts 22°
2026-05-07 19:34 42.75626 -8.33493 33155 ft 486 kts 22°
2026-05-07 19:34 42.78762 -8.31437 33590 ft 486 kts 22°
2026-05-07 19:34 42.81717 -8.29499 33969 ft 485 kts 21°
2026-05-07 19:35 42.84758 -8.27503 34322 ft 485 kts 22°
2026-05-07 19:35 42.87789 -8.25510 34721 ft 483 kts 22°
2026-05-07 19:35 42.90814 -8.23519 35102 ft 482 kts 22°
2026-05-07 19:35 42.93791 -8.21557 35471 ft 481 kts 22°
2026-05-07 19:36 42.96798 -8.19574 35824 ft 480 kts 22°
2026-05-07 19:36 42.99800 -8.17592 36186 ft 478 kts 22°
2026-05-07 19:36 43.02791 -8.15614 36531 ft 477 kts 22°
2026-05-07 19:36 43.05779 -8.13638 36881 ft 476 kts 22°
2026-05-07 19:37 43.08754 -8.11667 37189 ft 475 kts 22°
2026-05-07 19:37 43.11731 -8.09692 37494 ft 474 kts 22°
2026-05-07 19:37 43.14695 -8.07724 37786 ft 474 kts 22°
2026-05-07 19:37 43.17667 -8.05748 37929 ft 475 kts 22°
2026-05-07 19:38 43.23587 -8.01808 37903 ft 472 kts 22°
2026-05-07 19:38 43.29497 -7.97864 37887 ft 472 kts 22°
2026-05-07 19:39 43.35407 -7.93913 37891 ft 472 kts 22°
2026-05-07 19:39 43.41312 -7.89955 37891 ft 472 kts 22°
2026-05-07 19:40 43.47217 -7.85990 37898 ft 472 kts 22°
2026-05-07 19:40 43.53084 -7.82041 37898 ft 472 kts 23°
2026-05-07 19:41 43.58980 -7.78064 37892 ft 472 kts 22°
2026-05-07 19:41 43.64879 -7.74077 37895 ft 472 kts 22°
2026-05-07 19:42 43.70767 -7.70087 37906 ft 472 kts 22°
2026-05-07 19:42 43.76658 -7.66087 37900 ft 471 kts 22°
2026-05-07 19:43 43.82514 -7.62103 37899 ft 471 kts 22°
2026-05-07 19:43 43.88395 -7.58092 37903 ft 471 kts 22°
2026-05-07 19:44 43.94280 -7.54071 37907 ft 471 kts 22°
2026-05-07 19:44 44.00157 -7.50044 37908 ft 470 kts 22°
2026-05-07 19:45 44.06019 -7.46020 37912 ft 470 kts 23°
2026-05-07 19:45 44.11880 -7.41987 37908 ft 469 kts 23°
2026-05-07 19:46 44.17733 -7.37951 37905 ft 469 kts 23°
2026-05-07 19:46 44.23573 -7.33915 37912 ft 468 kts 23°
2026-05-07 19:47 44.29370 -7.29899 37911 ft 468 kts 23°
2026-05-07 19:47 44.35201 -7.25851 37911 ft 467 kts 23°
2026-05-07 19:48 44.41016 -7.21806 37915 ft 467 kts 23°
2026-05-07 19:48 44.46827 -7.17754 37914 ft 466 kts 23°
2026-05-07 19:49 44.52634 -7.13696 37924 ft 466 kts 23°
2026-05-07 19:49 44.58431 -7.09635 37925 ft 465 kts 24°
2026-05-07 19:50 44.64230 -7.05566 37924 ft 465 kts 24°
2026-05-07 19:50 44.69977 -7.01524 37929 ft 465 kts 24°
2026-05-07 19:51 44.75754 -6.97453 37929 ft 464 kts 24°
2026-05-07 19:51 44.81527 -6.93374 37931 ft 464 kts 24°
2026-05-07 19:52 44.86844 -6.88187 37927 ft 469 kts 38°
2026-05-07 19:52 44.92166 -6.82942 37979 ft 467 kts 31°
2026-05-07 19:53 44.97529 -6.77762 37928 ft 466 kts 33°
2026-05-07 19:53 45.02797 -6.72483 37942 ft 467 kts 33°
2026-05-07 19:54 45.08072 -6.67126 37941 ft 467 kts 33°
2026-05-07 19:54 45.13341 -6.61762 37943 ft 466 kts 34°
2026-05-07 19:55 45.18605 -6.56391 37945 ft 466 kts 34°
2026-05-07 19:55 45.23860 -6.51017 37944 ft 466 kts 34°
2026-05-07 19:56 45.29116 -6.45630 37946 ft 465 kts 34°
2026-05-07 19:56 45.34361 -6.40239 37951 ft 465 kts 34°
2026-05-07 19:57 45.39605 -6.34839 37948 ft 466 kts 34°
2026-05-07 19:57 45.44854 -6.29420 37955 ft 466 kts 34°
2026-05-07 19:58 45.50058 -6.24036 37953 ft 466 kts 34°
2026-05-07 19:58 45.55301 -6.18598 37967 ft 466 kts 34°
2026-05-07 19:59 45.60543 -6.13147 37956 ft 466 kts 34°
2026-05-07 19:59 45.65783 -6.07686 37959 ft 466 kts 34°
2026-05-07 20:00 45.71024 -6.02213 37967 ft 467 kts 34°
2026-05-07 20:00 45.76271 -5.96719 37963 ft 467 kts 34°
2026-05-07 20:01 45.81515 -5.91214 37965 ft 468 kts 34°
2026-05-07 20:01 45.86733 -5.85726 37964 ft 468 kts 34°
2026-05-07 20:02 45.91986 -5.80186 37974 ft 469 kts 34°
2026-05-07 20:02 45.97251 -5.74620 37970 ft 470 kts 34°
2026-05-07 20:03 46.02517 -5.69041 37970 ft 470 kts 35°
2026-05-07 20:03 46.07782 -5.63447 37974 ft 470 kts 35°
2026-05-07 20:04 46.13052 -5.57836 37977 ft 471 kts 35°
2026-05-07 20:04 46.18333 -5.52199 37974 ft 472 kts 35°
2026-05-07 20:05 46.23610 -5.46552 37977 ft 472 kts 35°
2026-05-07 20:05 46.28853 -5.40929 37978 ft 473 kts 36°
2026-05-07 20:06 46.34137 -5.35246 37983 ft 473 kts 36°
2026-05-07 20:06 46.39420 -5.29552 37980 ft 473 kts 36°
2026-05-07 20:07 46.44700 -5.23846 37987 ft 474 kts 36°
2026-05-07 20:07 46.49981 -5.18127 37982 ft 473 kts 36°
2026-05-07 20:08 46.55256 -5.12398 37989 ft 474 kts 36°
2026-05-07 20:08 46.60532 -5.06653 37992 ft 474 kts 36°
2026-05-07 20:09 46.65804 -5.00899 37987 ft 474 kts 36°
2026-05-07 20:10 46.73677 -4.92280 37989 ft 474 kts 36°
2026-05-07 20:10 46.78943 -4.86496 37994 ft 474 kts 36°
2026-05-07 20:11 46.84201 -4.80708 37997 ft 473 kts 37°
2026-05-07 20:11 46.89455 -4.74908 38001 ft 473 kts 37°
2026-05-07 20:12 46.94711 -4.69093 37995 ft 473 kts 37°
2026-05-07 20:12 46.99958 -4.63273 37994 ft 473 kts 37°
2026-05-07 20:13 47.05204 -4.57438 37995 ft 473 kts 37°
2026-05-07 20:13 47.09568 -4.52573 37996 ft 474 kts 37°
2026-05-07 20:14 47.14811 -4.46714 37999 ft 474 kts 37°
2026-05-07 20:14 47.20052 -4.40843 38000 ft 474 kts 37°
2026-05-07 20:15 47.25295 -4.34955 38000 ft 474 kts 37°
2026-05-07 20:15 47.30540 -4.29050 37999 ft 474 kts 37°
2026-05-07 20:16 47.35778 -4.23137 38002 ft 475 kts 37°
2026-05-07 20:16 47.41023 -4.17202 38005 ft 475 kts 37°
2026-05-07 20:17 47.46265 -4.11254 38003 ft 475 kts 37°
2026-05-07 20:17 47.51505 -4.05293 38005 ft 475 kts 37°
2026-05-07 20:18 47.56745 -3.99317 38001 ft 475 kts 37°
2026-05-07 20:18 47.61979 -3.93332 38001 ft 475 kts 37°
2026-05-07 20:19 47.67212 -3.87332 37996 ft 475 kts 37°
2026-05-07 20:19 47.72443 -3.81321 38001 ft 476 kts 37°
2026-05-07 20:20 47.77641 -3.75331 37999 ft 476 kts 37°
2026-05-07 20:20 47.82870 -3.69289 37998 ft 476 kts 37°
2026-05-07 20:21 47.88094 -3.63237 37995 ft 476 kts 37°
2026-05-07 20:21 47.93314 -3.57173 37998 ft 476 kts 38°
2026-05-07 20:22 47.98534 -3.51094 38001 ft 476 kts 38°
2026-05-07 20:22 48.03749 -3.45006 38004 ft 476 kts 38°
2026-05-07 20:23 48.08964 -3.38900 38004 ft 476 kts 38°
2026-05-07 20:23 48.14180 -3.32777 38010 ft 476 kts 38°
2026-05-07 20:24 48.19385 -3.26653 38008 ft 476 kts 38°
2026-05-07 20:24 48.24585 -3.20515 38008 ft 476 kts 38°
2026-05-07 20:25 48.29785 -3.14361 38006 ft 476 kts 38°
2026-05-07 20:25 48.34940 -3.08247 38005 ft 475 kts 38°
2026-05-07 20:26 48.40123 -3.02082 37995 ft 475 kts 38°
2026-05-07 20:26 48.45342 -2.95861 37994 ft 475 kts 38°
2026-05-07 20:27 48.50490 -2.89708 37993 ft 475 kts 38°
2026-05-07 20:27 48.55669 -2.83502 37993 ft 475 kts 38°
2026-05-07 20:28 48.60845 -2.77284 37994 ft 475 kts 38°
2026-05-07 20:28 48.66017 -2.71053 37993 ft 475 kts 38°
2026-05-07 20:29 48.71183 -2.64813 37995 ft 475 kts 39°
2026-05-07 20:29 48.76346 -2.58561 38001 ft 475 kts 39°
2026-05-07 20:30 48.81580 -2.52438 38007 ft 475 kts 37°
2026-05-07 20:30 48.86817 -2.46315 38006 ft 475 kts 38°
2026-05-07 20:31 48.92053 -2.40172 38011 ft 475 kts 38°
2026-05-07 20:31 48.97287 -2.34015 38015 ft 476 kts 38°
2026-05-07 20:32 49.02522 -2.27840 38021 ft 476 kts 38°
2026-05-07 20:32 49.07719 -2.21694 38022 ft 476 kts 38°
2026-05-07 20:33 49.12983 -2.15451 38021 ft 476 kts 38°
2026-05-07 20:33 49.18212 -2.09232 38021 ft 476 kts 38°
2026-05-07 20:34 49.23515 -2.03162 38001 ft 475 kts 30°
2026-05-07 20:34 49.29304 -1.98437 38022 ft 475 kts 28°
2026-05-07 20:35 49.35100 -1.93583 38029 ft 475 kts 28°
2026-05-07 20:35 49.40882 -1.88662 38024 ft 475 kts 28°
2026-05-07 20:36 49.46656 -1.83732 38027 ft 475 kts 29°
2026-05-07 20:36 49.52428 -1.78794 38026 ft 475 kts 29°
2026-05-07 20:37 49.58220 -1.73885 38016 ft 475 kts 25°
2026-05-07 20:37 49.61301 -1.72111 38004 ft 470 kts
2026-05-07 20:37 49.64531 -1.71783 38063 ft 465 kts 358°
2026-05-07 20:38 49.71035 -1.71516 37986 ft 467 kts
2026-05-07 20:38 49.74289 -1.71289 37877 ft 468 kts
2026-05-07 20:38 49.77535 -1.71034 37587 ft 466 kts
2026-05-07 20:38 49.80771 -1.70764 37334 ft 466 kts
2026-05-07 20:39 49.84012 -1.70488 37064 ft 467 kts
2026-05-07 20:39 49.87264 -1.70212 36795 ft 467 kts
2026-05-07 20:39 49.90516 -1.69935 36530 ft 468 kts
2026-05-07 20:39 49.93769 -1.69659 36268 ft 468 kts
2026-05-07 20:40 49.97029 -1.69382 36053 ft 469 kts
2026-05-07 20:40 50.00261 -1.68773 36043 ft 470 kts 15°
2026-05-07 20:40 50.03348 -1.67092 36035 ft 472 kts 22°
2026-05-07 20:41 50.09633 -1.64065 36050 ft 473 kts 14°
2026-05-07 20:41 50.12804 -1.62752 35182 ft 475 kts 16°
2026-05-07 20:41 50.16025 -1.61289 34194 ft 482 kts 17°
2026-05-07 20:41 50.19212 -1.59793 33671 ft 475 kts 17°
2026-05-07 20:42 50.22365 -1.58281 32899 ft 474 kts 17°
2026-05-07 20:42 50.25521 -1.56747 32070 ft 475 kts 17°
2026-05-07 20:42 50.28676 -1.55205 31236 ft 475 kts 17°
2026-05-07 20:42 50.31834 -1.53659 30399 ft 476 kts 17°
2026-05-07 20:43 50.34994 -1.52112 29453 ft 477 kts 17°
2026-05-07 20:43 50.38166 -1.50557 28465 ft 478 kts 17°
2026-05-07 20:43 50.41329 -1.49005 27699 ft 474 kts 17°
2026-05-07 20:43 50.44463 -1.47463 27015 ft 470 kts 17°
2026-05-07 20:44 50.47570 -1.45933 26368 ft 465 kts 17°
2026-05-07 20:44 50.50679 -1.44401 25762 ft 460 kts 17°
2026-05-07 20:44 50.53654 -1.42814 25164 ft 456 kts 25°
2026-05-07 20:44 50.56425 -1.40439 24545 ft 453 kts 30°
2026-05-07 20:45 50.59203 -1.38114 23913 ft 450 kts 28°
2026-05-07 20:45 50.61954 -1.35817 23341 ft 445 kts 28°
2026-05-07 20:45 50.64673 -1.33509 22687 ft 442 kts 29°
2026-05-07 20:45 50.67356 -1.31209 22105 ft 437 kts 29°
2026-05-07 20:46 50.70009 -1.28922 21502 ft 433 kts 29°
2026-05-07 20:46 50.72638 -1.26652 20929 ft 429 kts 29°
2026-05-07 20:46 50.75245 -1.24397 20364 ft 425 kts 30°
2026-05-07 20:46 50.77718 -1.21881 19810 ft 421 kts 34°
2026-05-07 20:47 50.80165 -1.19349 19260 ft 418 kts 33°
2026-05-07 20:47 50.82592 -1.16859 18733 ft 415 kts 33°
2026-05-07 20:47 50.85016 -1.14378 18201 ft 412 kts 33°
2026-05-07 20:47 50.87411 -1.11923 17631 ft 409 kts 33°
2026-05-07 20:48 50.89783 -1.09489 17087 ft 405 kts 33°
2026-05-07 20:48 50.92140 -1.07068 16541 ft 402 kts 33°
2026-05-07 20:48 50.94476 -1.04666 16051 ft 399 kts 34°
2026-05-07 20:48 50.96786 -1.02288 15646 ft 393 kts 34°
2026-05-07 20:49 50.99053 -0.99950 15358 ft 384 kts 34°
2026-05-07 20:49 51.01105 -0.97329 15174 ft 372 kts 50°
2026-05-07 20:49 51.02764 -0.94258 14983 ft 362 kts 49°
2026-05-07 20:49 51.04453 -0.91347 14809 ft 353 kts 49°
2026-05-07 20:50 51.06083 -0.88501 14648 ft 343 kts 49°
2026-05-07 20:50 51.07662 -0.85714 14361 ft 338 kts 50°
2026-05-07 20:50 51.09228 -0.82930 13968 ft 337 kts 50°
2026-05-07 20:50 51.10786 -0.80151 13609 ft 335 kts 50°
2026-05-07 20:51 51.12338 -0.77373 13204 ft 335 kts 50°
2026-05-07 20:51 51.13878 -0.74618 12821 ft 334 kts 50°
2026-05-07 20:51 51.15417 -0.71860 12444 ft 332 kts 49°
2026-05-07 20:51 51.16952 -0.69109 12072 ft 331 kts 49°
2026-05-07 20:52 51.18475 -0.66374 11710 ft 329 kts 49°
2026-05-07 20:52 51.19988 -0.63654 11358 ft 327 kts 49°
2026-05-07 20:52 51.21491 -0.60950 11011 ft 324 kts 49°
2026-05-07 20:52 51.22981 -0.58266 10666 ft 322 kts 49°
2026-05-07 20:53 51.24461 -0.55598 10330 ft 320 kts 49°
2026-05-07 20:53 51.25946 -0.52976 9985 ft 318 kts 44°
2026-05-07 20:53 51.27098 -0.51546 9687 ft 316 kts 29°
2026-05-07 20:53 51.29859 -0.50555 9040 ft 309 kts 351°
2026-05-07 20:54 51.31235 -0.51227 8722 ft 306 kts 331°
2026-05-07 20:54 51.32760 -0.53496 8248 ft 302 kts 300°